Tucson Davis Monthan, AZ

3:44 PM MST on December 13, 2017 (GMT -0700)
Davis-Monthan Air Force Base

Weather History for KDMA - February, 2013

Change the Weather History Date:

Sunday, February 3, 2013

  Actual Average Record
Temperature  
Mean Temperature 60 °F -  
Max Temperature 68 °F 68 °F 82 °F (1980)
Min Temperature 52 °F 38 °F 17 °F (2011)
Degree Days  
Heating Degree Days 5    
Growing Degree Days 10 (Base 50)    
Moisture  
Dew Point 32 °F    
Average Humidity 37    
Maximum Humidity 56    
Minimum Humidity 25    
Precipitation  
Precipitation 0.00 in - - ()
Sea Level Pressure  
Sea Level Pressure 29.98 in    
Wind  
Wind Speed 6 mph (SSE)    
Max Wind Speed 13 mph    
Max Gust Speed -    
Visibility 10 miles    
Events      
Averages and records for this station are not official NWS values.
T = Trace of Precipitation, MM = Missing Value Source: NWS Daily Summary

Daily Weather History Graph

Daily Weather History Graph

Search for Another Location

Airport or City:

Trip Planner

Search our weather history database for the weather conditions in past years. The results will help you decide how hot, cold, wet, or windy it might be!

Date:

Astronomy

Feb. 03, 2013 Rise Set
Actual Time 7:15 AM MST 5:59 PM MST
Civil Twilight 6:50 AM MST 6:24 PM MST
Nautical Twilight 6:21 AM MST 6:54 PM MST
Astronomical Twilight 5:52 AM MST 7:22 PM MST
Moon 12:46 AM MST (2/3) 11:41 AM MST (2/3)
Length of Visible Light 11h 34m
Length of Day
10h 43m
Waning Gibbous, 48% of the Moon is Illuminated
Feb 3
Waning Gibbous
Feb 10
New
Feb 17
First Quarter
Feb 25
Full
Mar 4
Last Quarter

Hourly Weather History & Observations

Time (MST) Temp. Dew Point Humidity Pressure Visibility Wind Dir Wind Speed Gust Speed Precip Events Conditions
12:58 AM 53.8 °F 34.2 °F 47% 30.07 in 10.0 mi East 4.6 mph - N/A   Overcast
1:58 AM 52.3 °F 33.1 °F 48% 30.05 in 10.0 mi ESE 5.8 mph - N/A   Scattered Clouds
2:58 AM 53.8 °F 29.7 °F 40% 30.02 in 10.0 mi East 2.3 mph - N/A   Clear
3:58 AM 52.5 °F 29.7 °F 42% 30.02 in 10.0 mi SE 8.1 mph - N/A   Partly Cloudy
4:58 AM 52.9 °F 30.0 °F 42% 30.00 in 10.0 mi NNE 2.3 mph - N/A   Partly Cloudy
5:58 AM 59.0 °F 22.8 °F 25% 29.99 in 10.0 mi ESE 12.7 mph - N/A   Mostly Cloudy
6:58 AM 53.4 °F 30.6 °F 42% 30.00 in 10.0 mi SE 10.4 mph - N/A   Clear
7:58 AM 54.0 °F 30.9 °F 41% 30.02 in 10.0 mi SE 4.6 mph - N/A   Clear
8:58 AM 58.3 °F 24.6 °F 27% 30.01 in 10.0 mi SE 5.8 mph - N/A   Clear
9:58 AM 60.8 °F 25.0 °F 25% 30.02 in 10.0 mi ESE 11.5 mph - N/A   Partly Cloudy
10:58 AM 60.1 °F 32.4 °F 35% 30.02 in 10.0 mi WNW 4.6 mph - N/A   Clear
11:58 AM 62.8 °F 30.2 °F 29% 30.02 in 10.0 mi West 4.6 mph - N/A   Clear
12:58 PM 64.6 °F 28.9 °F 26% 29.98 in 10.0 mi South 5.8 mph - N/A   Clear
1:58 PM 63.5 °F 30.2 °F 29% 29.95 in 10.0 mi South 5.8 mph - N/A   Clear
2:58 PM 65.7 °F 30.2 °F 27% 29.91 in 10.0 mi ENE 5.8 mph - N/A   Clear
3:58 PM 67.1 °F 30.6 °F 26% 29.91 in 10.0 mi North 3.5 mph - N/A   Clear
4:58 PM 68.0 °F 31.3 °F 26% 29.91 in 10.0 mi WNW 2.3 mph - N/A   Scattered Clouds
5:58 PM 65.5 °F 34.9 °F 32% 29.91 in 10.0 mi WNW 4.6 mph - N/A   Overcast
6:58 PM 60.3 °F 37.9 °F 44% 29.94 in 10.0 mi NW 9.2 mph - N/A   Scattered Clouds
7:58 PM 59.7 °F 36.3 °F 42% 29.95 in 10.0 mi NW 10.4 mph - N/A   Mostly Cloudy
8:58 PM 58.6 °F 36.5 °F 44% 29.97 in 10.0 mi WNW 11.5 mph - N/A   Overcast
9:58 PM 57.7 °F 36.7 °F 45% 29.98 in 10.0 mi South 4.6 mph - N/A   Overcast
10:58 PM 54.7 °F 37.6 °F 53% 29.97 in 10.0 mi South 5.8 mph - N/A   Clear
11:58 PM 53.4 °F 37.9 °F 56% 29.97 in 10.0 mi SSW 5.8 mph - N/A   Clear